Fergus Falls, MN

9:36 PM CST on December 14, 2017 (GMT -0600)
Fergus Falls Municipal-Mickelson

Weather History for KFFM - February, 2012

Change the Weather History Date:

Tuesday, February 21, 2012

  Actual Average Record
Temperature  
Mean Temperature 27 °F -  
Max Temperature 30 °F 28 °F 50 °F (2017)
Min Temperature 24 °F 8 °F -19 °F (1968)
Degree Days  
Heating Degree Days 38    
Moisture  
Dew Point 27 °F    
Average Humidity 93    
Maximum Humidity 100    
Minimum Humidity 80    
Precipitation  
Precipitation 0.01 in - - ()
Sea Level Pressure  
Sea Level Pressure 29.57 in    
Wind  
Wind Speed 10 mph (WNW)    
Max Wind Speed 23 mph    
Max Gust Speed 28 mph    
Visibility 7 miles    
Events Fog , Snow    
Averages and records for this station are not official NWS values.
T = Trace of Precipitation, MM = Missing Value Source: NWS Daily Summary

Daily Weather History Graph

Daily Weather History Graph

Search for Another Location

Airport or City:

Trip Planner

Search our weather history database for the weather conditions in past years. The results will help you decide how hot, cold, wet, or windy it might be!

Date:

Astronomy

Feb. 21, 2012 Rise Set
Actual Time 7:18 AM CST 5:58 PM CST
Civil Twilight 6:48 AM CST 6:29 PM CST
Nautical Twilight 6:13 AM CST 7:04 PM CST
Astronomical Twilight 5:38 AM CST 7:38 PM CST
Moon 6:46 AM CST (2/21) 6:09 PM CST (2/21)
Length of Visible Light 11h 41m
Length of Day
10h 39m
Waning Crescent, 0% of the Moon is Illuminated
Feb 21
Waning Crescent
Feb 21
New
Feb 29
First Quarter
Mar 8
Full
Mar 14
Last Quarter

Hourly Weather History & Observations

Time (CST) Temp. Windchill Dew Point Humidity Pressure Visibility Wind Dir Wind Speed Gust Speed Precip Events Conditions
12:01 AM 30.2 °F 22.6 °F 30.2 °F 100% 29.59 in 2.0 mi West 8.1 mph - N/A   Overcast
12:21 AM 30.2 °F - 30.2 °F 100% 29.58 in 1.8 mi Calm Calm - N/A   Overcast
12:41 AM 30.2 °F - 30.2 °F 100% 29.57 in 2.5 mi Calm Calm - N/A   Overcast
1:01 AM 30.2 °F - 30.2 °F 100% 29.57 in 2.5 mi Calm Calm - N/A   Overcast
1:21 AM 30.2 °F - 30.2 °F 100% 29.57 in 2.5 mi West 2.3 mph - N/A   Overcast
1:53 AM 30.2 °F 22.6 °F 30.2 °F 100% 29.56 in 2.5 mi WNW 8.1 mph - N/A Snow Light Snow
2:13 AM 30.2 °F 21.9 °F 30.2 °F 100% 29.56 in 2.5 mi West 9.2 mph - N/A   Overcast
2:33 AM 30.2 °F 21.9 °F 30.2 °F 100% 29.55 in 1.8 mi WNW 9.2 mph - N/A   Overcast
2:52 AM 30.2 °F 21.9 °F 30.2 °F 100% 29.55 in 1.8 mi West 9.2 mph - N/A   Overcast
3:33 AM 30.2 °F 20.8 °F 30.2 °F 100% 29.54 in 3.0 mi WNW 11.5 mph - N/A   Overcast
3:53 AM 30.2 °F 20.8 °F 30.2 °F 100% 29.54 in 4.0 mi WNW 11.5 mph - N/A   Overcast
4:13 AM 30.2 °F 21.3 °F 30.2 °F 100% 29.54 in 4.0 mi WNW 10.4 mph - N/A   Overcast
4:33 AM 30.2 °F 21.9 °F 30.2 °F 100% 29.54 in 1.2 mi West 9.2 mph - N/A   Overcast
4:53 AM 30.2 °F 22.6 °F 30.2 °F 100% 29.54 in 1.0 mi West 8.1 mph - N/A   Overcast
5:14 AM 30.2 °F 21.3 °F 30.2 °F 100% 29.54 in 0.5 mi West 10.4 mph - N/A Fog Light Freezing Fog
5:33 AM 28.4 °F 19.7 °F 28.4 °F 100% 29.54 in 4.0 mi WNW 9.2 mph - N/A   Overcast
5:53 AM 28.4 °F 19.7 °F 28.4 °F 100% 29.54 in 7.0 mi West 9.2 mph - N/A   Overcast
6:33 AM 26.6 °F 17.5 °F 26.6 °F 100% 29.55 in 10.0 mi West 9.2 mph - N/A   Mostly Cloudy
6:53 AM 24.8 °F 16.1 °F 24.8 °F 100% 29.55 in 10.0 mi WNW 8.1 mph - N/A   Mostly Cloudy
7:13 AM 24.8 °F 16.9 °F 24.8 °F 100% 29.55 in 10.0 mi WNW 6.9 mph - N/A   Mostly Cloudy
7:33 AM 26.6 °F 18.2 °F 24.8 °F 93% 29.55 in 10.0 mi West 8.1 mph - N/A   Mostly Cloudy
7:53 AM 26.6 °F 18.2 °F 26.6 °F 100% 29.56 in 1.8 mi West 8.1 mph - N/A Snow Light Snow
8:13 AM 26.6 °F 17.5 °F 26.6 °F 100% 29.56 in 4.0 mi West 9.2 mph - N/A Snow Light Snow
8:33 AM 28.4 °F 17.0 °F 26.6 °F 93% 29.56 in 10.0 mi WNW 15.0 mph - N/A   Mostly Cloudy
8:53 AM 28.4 °F 17.5 °F 26.6 °F 93% 29.56 in 10.0 mi NW 13.8 mph - N/A   Mostly Cloudy
9:13 AM 26.6 °F 14.7 °F 24.8 °F 93% 29.56 in 10.0 mi WNW 15.0 mph - N/A   Scattered Clouds
9:33 AM 28.4 °F 16.6 °F 24.8 °F 86% 29.56 in 10.0 mi WNW 16.1 mph 21.9 mph N/A   Scattered Clouds
9:53 AM 28.4 °F 17.0 °F 24.8 °F 86% 29.56 in 10.0 mi WNW 15.0 mph - N/A   Mostly Cloudy
10:13 AM 28.4 °F 16.6 °F 26.6 °F 93% 29.56 in 10.0 mi WNW 16.1 mph - N/A   Overcast
10:33 AM 28.4 °F 15.8 °F 26.6 °F 93% 29.56 in 2.0 mi WNW 18.4 mph - N/A   Overcast
10:53 AM 28.4 °F 16.6 °F 26.6 °F 93% 29.56 in 1.2 mi WNW 16.1 mph - N/A Snow Light Snow
11:13 AM 28.4 °F 15.8 °F 26.6 °F 93% 29.57 in 0.5 mi WNW 18.4 mph - N/A Snow Light Snow
11:33 AM 26.6 °F 13.4 °F 26.6 °F 100% 29.57 in 1.0 mi WNW 18.4 mph - 0.01 in Snow Light Snow
11:52 AM 28.4 °F 16.6 °F 26.6 °F 93% 29.57 in 7.0 mi WNW 16.1 mph - 0.01 in   Scattered Clouds
11:55 AM 28.4 °F 16.2 °F 26.6 °F 93% 29.57 in 10.0 mi WNW 17.3 mph - 0.01 in   Scattered Clouds
12:13 PM 28.4 °F 14.7 °F 26.6 °F 93% 29.57 in 5.0 mi WNW 21.9 mph - N/A   Mostly Cloudy
12:33 PM 28.4 °F 14.7 °F 26.6 °F 93% 29.57 in 7.0 mi WNW 21.9 mph - N/A   Scattered Clouds
1:13 PM 28.4 °F 15.8 °F 26.6 °F 93% 29.56 in 10.0 mi WNW 18.4 mph - N/A   Scattered Clouds
1:33 PM 28.4 °F 15.4 °F 26.6 °F 93% 29.56 in 10.0 mi WNW 19.6 mph - N/A   Scattered Clouds
1:53 PM 28.4 °F 15.8 °F 26.6 °F 93% 29.56 in 5.0 mi WNW 18.4 mph - N/A   Mostly Cloudy
2:21 PM 28.4 °F 15.8 °F 26.6 °F 93% 29.56 in 5.0 mi WNW 18.4 mph - N/A   Overcast
2:41 PM 28.4 °F 16.2 °F 26.6 °F 93% 29.56 in 10.0 mi WNW 17.3 mph 24.2 mph N/A   Overcast
3:01 PM 30.2 °F 18.5 °F 24.8 °F 80% 29.56 in 10.0 mi WNW 17.3 mph - N/A   Scattered Clouds
3:32 PM 30.2 °F 17.4 °F 24.8 °F 80% 29.57 in 10.0 mi WNW 20.7 mph 27.6 mph N/A   Mostly Cloudy
4:13 PM 30.2 °F 18.1 °F 24.8 °F 80% 29.58 in 10.0 mi WNW 18.4 mph - N/A   Mostly Cloudy
4:33 PM 28.4 °F 15.8 °F 24.8 °F 86% 29.58 in 10.0 mi WNW 18.4 mph 23.0 mph N/A Snow Light Snow
4:53 PM 28.4 °F 14.4 °F 24.8 °F 86% 29.58 in 7.0 mi WNW 23.0 mph 26.5 mph N/A Snow Light Snow
5:13 PM 28.4 °F 16.2 °F 24.8 °F 86% 29.58 in 10.0 mi NW 17.3 mph - N/A   Mostly Cloudy
5:52 PM 28.4 °F 18.5 °F 26.6 °F 93% 29.59 in 10.0 mi NW 11.5 mph - N/A   Overcast
6:13 PM 26.6 °F 16.2 °F 24.8 °F 93% 29.59 in 10.0 mi NW 11.5 mph - N/A   Overcast
6:33 PM 26.6 °F 17.5 °F 23.0 °F 86% 29.60 in 10.0 mi NW 9.2 mph - N/A   Overcast
6:52 PM 26.6 °F - 23.0 °F 86% 29.60 in 10.0 mi Calm Calm - N/A   Overcast
7:13 PM 26.6 °F 19.1 °F 21.2 °F 80% 29.60 in 10.0 mi WNW 6.9 mph - N/A   Overcast
7:33 PM 26.6 °F - 21.2 °F 80% 29.60 in 10.0 mi Calm Calm - N/A   Overcast
8:13 PM 26.6 °F 17.5 °F 23.0 °F 86% 29.60 in 10.0 mi WNW 9.2 mph - N/A   Overcast
8:33 PM 26.6 °F 16.8 °F 23.0 °F 86% 29.60 in 10.0 mi WNW 10.4 mph - N/A   Overcast
8:53 PM 26.6 °F 16.8 °F 21.2 °F 80% 29.60 in 10.0 mi WNW 10.4 mph - N/A   Overcast
9:13 PM 26.6 °F 17.5 °F 21.2 °F 80% 29.59 in 10.0 mi NW 9.2 mph - N/A   Mostly Cloudy
9:33 PM 24.8 °F 15.3 °F 19.4 °F 80% 29.59 in 10.0 mi NW 9.2 mph - N/A   Scattered Clouds
9:53 PM 21.2 °F 12.6 °F 17.6 °F 86% 29.59 in 10.0 mi WNW 6.9 mph - N/A   Clear
10:14 PM 17.6 °F - 14.0 °F 86% 29.59 in 10.0 mi Calm Calm - N/A   Clear
10:33 PM 17.6 °F - 15.8 °F 93% 29.59 in 10.0 mi Calm Calm - N/A   Clear
10:53 PM 15.8 °F - 15.8 °F 100% 29.58 in 10.0 mi Calm Calm - N/A   Clear
11:13 PM 15.8 °F - 14.0 °F 93% 29.58 in 10.0 mi Calm Calm - N/A   Clear
11:33 PM 15.8 °F - 15.8 °F 100% 29.57 in 10.0 mi Calm Calm - N/A   Clear
11:53 PM 15.8 °F - 14.0 °F 93% 29.56 in 10.0 mi Calm Calm - N/A   Clear